Flag for U.S.A. Weather past 2 weeks in Boulder, Colorado, U.S.A.

Now
50 °F

Broken clouds.


Feels Like: 47 °F
Forecast: 41 / 64 °F
Wind: 8 mph from North

Location: Broomfield / Jeffco

Current Time: May 23, 2015 at 10:04:58 PM

Latest Report: May 23, 2015 at 8:47 PM


Visibility: 10 mi

Pressure: 29.97 "Hg

Humidity: 88%

Dew point: 46 °F

Location of BoulderLocation

Historic Weather in Boulder — Graph

°F

Boulder temperature yesterday

Maximum temperature yesterday: 55 °F (at 2:53 PM)
Minimum temperature yesterday: 46 °F (at 3:36 AM)
Average temperature yesterday: 49 °F

Past Weeks' High & Low Weather Summary

 TemperatureHumidityPressure
High73 °F (May 14, 1:45 PM)100% (May 8, 8:45 PM)30.38 "Hg (May 8, 8:45 PM)
Low30 °F (May 9, 11:16 PM)17% (May 14, 2:45 PM)29.68 "Hg (May 16, 1:47 PM)
Average47 °F80%30.04 "Hg
* Reported May 8 8:45 PM — May 23 8:47 PM, Boulder, Weather by CustomWeather, © 2015

Note: Actual official high and low records may vary slightly from our data, if they occured in-between our weather recording intervals... More about our weather records

Advertising

Boulder weather history for previous 24 hours

 ConditionsComfort  
Time TempWeatherWind HumidityBarometerVisibility
8:47 PM
Sat, May 23
50 °FBroken clouds.8 mph88%29.97 "Hg10 mi
7:45 PM54 °FThunderstorms. Broken clouds.1 mph72%29.96 "Hg10 mi
6:48 PM55 °FBroken clouds.10 mph67%29.91 "Hg20 mi
5:48 PM57 °FScattered clouds.8 mph72%29.91 "Hg20 mi
3:47 PM54 °FBroken clouds.5 mph77%29.93 "Hg20 mi
2:47 PM50 °FBroken clouds.10 mph94%29.94 "Hg20 mi
1:48 PM48 °FThunderstorms. Cloudy.9 mph87%29.95 "Hg5 mi
12:46 PM57 °FLight rain. Cloudy.7 mph77%29.97 "Hg5 mi
11:50 AM55 °FCloudy.3 mph77%29.99 "Hg5 mi
10:45 AM54 °FBroken clouds.6 mph82%30.01 "Hg5 mi
9:45 AM52 °FBroken clouds.7 mph88%30.02 "Hg5 mi
8:45 AM48 °FPartly sunny.3 mph100%30.04 "Hg3 mi
7:47 AM48 °FFog.No wind100%30.05 "Hg3 mi
6:46 AM48 °FFog.3 mph100%30.05 "Hg0 mi
5:56 AM46 °FFog.No wind100%30.03 "Hg2 mi
5:36 AM46 °FFog.No wind100%30.03 "Hg1 mi
5:16 AM46 °FFog.No wind100%30.03 "Hg1 mi
4:56 AM46 °FFog.7 mph100%30.03 "Hg1 mi
4:36 AM46 °FFog.No wind100%30.02 "Hg2 mi
4:16 AM46 °FFog.No wind100%30.03 "Hg2 mi
3:55 AM46 °FFog.No wind100%30.04 "Hg3 mi
3:35 AM48 °FFog.No wind100%30.04 "Hg3 mi
3:16 AM48 °FFog.No wind100%30.05 "Hg3 mi
2:55 AM48 °FFog.3 mph100%30.06 "Hg4 mi
2:36 AM48 °FFog.5 mph100%30.07 "Hg4 mi
2:16 AM46 °FFog.No wind100%30.06 "Hg4 mi
1:56 AM46 °FFog.3 mph100%30.07 "Hg5 mi
1:36 AM46 °FPassing clouds.No wind100%30.06 "Hg10 mi
1:16 AM46 °FPartly cloudy.No wind100%30.05 "Hg10 mi
12:56 AM46 °FOvercast.No wind100%30.07 "Hg10 mi
12:35 AM46 °FMostly cloudy.No wind100%30.07 "Hg7 mi
11:56 PM
Fri, May 22
46 °FMostly cloudy.No wind100%30.07 "Hg10 mi
11:36 PM46 °FPartly cloudy.No wind100%30.07 "Hg10 mi
11:16 PM46 °FPartly cloudy.6 mph100%30.06 "Hg10 mi
Weather by CustomWeather, © 2015

See weather overviewHow to use our weather pages